| time (UTC) | temp F | wind direction | speed knots | gust knots | rain 1hr in | rain 24hr in | rain mn in | humidity % | barometer mb |
| 20260505194732 | 68 | 0 | 7.0 | 11.3 | 0.00 | 0.00 | 0.00 | 52 | 997.9 |
| 20260505194232 | 68 | 22 | 7.0 | 8.7 | 0.00 | 0.00 | 0.00 | 50 | 1039.7 |
| 20260505193732 | 69 | 22 | 5.2 | 7.8 | 0.00 | 0.00 | 0.00 | 49 | 997.9 |
| 20260505193232 | 69 | 22 | 4.3 | 7.8 | 0.00 | 0.00 | 0.00 | 47 | 920.5 |
| 20260505192732 | 69 | 0 | 4.3 | 8.7 | 0.00 | 0.00 | 0.00 | 45 | 1090.9 |
| 20260505192232 | 69 | 0 | 5.2 | 7.0 | 0.00 | 0.00 | 0.00 | 42 | 1055.4 |
| 20260505192131 | 69 | 0 | 3.5 | 7.0 | 0.00 | 0.00 | 0.00 | 41 | 1055.4 |
| 20260505191732 | 69 | 22 | 1.7 | 7.8 | 0.00 | 0.00 | 0.00 | 40 | 1081.5 |
| 20260505191232 | 69 | 315 | 3.5 | 7.8 | 0.00 | 0.00 | 0.00 | 36 | 1004.1 |
| 20260505190732 | 70 | 135 | 0.0 | 3.5 | 0.00 | 0.00 | 0.00 | 34 | 920.5 |
| 20260505190232 | 70 | 225 | 0.0 | 1.7 | 0.00 | 0.00 | 0.00 | 34 | 1045.9 |
| 20260505185732 | 70 | 337 | 1.7 | 6.1 | 0.00 | 0.00 | 0.00 | 33 | 1010.4 |
| 20260505185232 | 70 | 315 | 2.6 | 2.6 | 0.00 | 0.00 | 0.00 | 32 | 974.7 |
| 20260505184831 | 71 | 22 | 0.0 | 1.7 | 0.00 | 0.00 | 0.00 | 31 | 1039.7 |
| 20260505184732 | 71 | 112 | 0.0 | 1.7 | 0.00 | 0.00 | 0.00 | 31 | 974.8 |
| 20260505184239 | 71 | 135 | 0.9 | 1.7 | 0.00 | 0.00 | 0.00 | 31 | 1097.2 |
| 20260505184232 | 71 | 135 | 0.9 | 1.7 | 0.00 | 0.00 | 0.00 | 31 | 1097.2 |
| 20260505183732 | 71 | 135 | 0.0 | 1.7 | 0.00 | 0.00 | 0.00 | 30 | 1097.2 |
| 20260505183232 | 72 | 112 | 0.0 | 1.7 | 0.00 | 0.00 | 0.00 | 30 | 1100.3 |
| 20260505182732 | 72 | 135 | 0.9 | 1.7 | 0.00 | 0.00 | 0.00 | 29 | 1060.2 |
| 20260505182232 | 73 | 180 | 0.9 | 1.7 | 0.00 | 0.00 | 0.00 | 29 | 1039.7 |
| 20260505181732 | 73 | 157 | 0.9 | 2.6 | 0.00 | 0.00 | 0.00 | 29 | 1019.7 |
| 20260505181531 | 73 | 135 | 2.6 | 2.6 | 0.00 | 0.00 | 0.00 | 28 | 1058.5 |
| 20260505181232 | 74 | 135 | 0.9 | 2.6 | 0.00 | 0.00 | 0.00 | 28 | 1094.1 |
| 20260505180732 | 75 | 157 | 1.7 | 3.5 | 0.00 | 0.00 | 0.00 | 28 | 1042.8 |
| 20260505180232 | 75 | 112 | 3.5 | 4.3 | 0.00 | 0.00 | 0.00 | 28 | 1055.3 |
| 20260505175732 | 76 | 135 | 2.6 | 4.3 | 0.00 | 0.00 | 0.00 | 27 | 1055.4 |
| 20260505175232 | 76 | 157 | 4.3 | 4.3 | 0.00 | 0.00 | 0.00 | 27 | 1100.3 |
| 20260505174732 | 77 | 157 | 2.6 | 4.3 | 0.00 | 0.00 | 0.00 | 27 | 1100.3 |
| 20260505174231 | 77 | 112 | 0.9 | 2.6 | 0.00 | 0.00 | 0.00 | 27 | 1007.2 |
| 20260505173732 | 78 | 157 | 0.9 | 4.3 | 0.00 | 0.00 | 0.00 | 26 | 1004.1 |
| 20260505173232 | 78 | 157 | 4.3 | 6.1 | 0.00 | 0.00 | 0.00 | 26 | 1013.5 |
| 20260505172732 | 78 | 180 | 0.9 | 4.3 | 0.00 | 0.00 | 0.00 | 26 | 1100.3 |
| 20260505172232 | 78 | 157 | 1.7 | 5.2 | 0.00 | 0.00 | 0.00 | 26 | 1013.5 |
| 20260505171733 | 78 | 180 | 1.7 | 4.3 | 0.00 | 0.00 | 0.00 | 26 | 1019.7 |
| 20260505171232 | 78 | 180 | 2.6 | 5.2 | 0.00 | 0.00 | 0.00 | 26 | 1010.4 |
| 20260505170931 | 78 | 157 | 3.5 | 8.7 | 0.00 | 0.00 | 0.00 | 26 | 903.5 |
| 20260505170732 | 78 | 135 | 8.7 | 8.7 | 0.00 | 0.00 | 0.00 | 26 | 965.4 |
| 20260505170232 | 79 | 202 | 3.5 | 6.1 | 0.00 | 0.00 | 0.00 | 26 | 1058.5 |
| 20260505165732 | 79 | 180 | 3.5 | 7.0 | 0.00 | 0.00 | 0.00 | 26 | 1046.0 |
| 20260505165232 | 79 | 157 | 3.5 | 8.7 | 0.00 | 0.00 | 0.00 | 24 | 1049.1 |
| 20260505164732 | 80 | 157 | 1.7 | 5.2 | 0.00 | 0.00 | 0.00 | 24 | 1042.8 |
| 20260505164232 | 80 | 135 | 2.6 | 7.0 | 0.00 | 0.00 | 0.00 | 24 | 1013.5 |
| 20260505163733 | 80 | 157 | 3.5 | 8.7 | 0.00 | 0.00 | 0.00 | 24 | 1018.4 |
| 20260505163631 | 80 | 180 | 5.2 | 8.7 | 0.00 | 0.00 | 0.00 | 24 | 1055.4 |
| 20260505163232 | 80 | 157 | 2.6 | 10.4 | 0.00 | 0.00 | 0.00 | 23 | 1013.4 |
| 20260505162732 | 81 | 157 | 7.8 | 7.8 | 0.00 | 0.00 | 0.00 | 23 | 1010.4 |
| 20260505162232 | 81 | 180 | 6.1 | 7.0 | 0.00 | 0.00 | 0.00 | 23 | 1049.1 |
| 20260505161732 | 81 | 180 | 2.6 | 10.4 | 0.00 | 0.00 | 0.00 | 23 | 1052.2 |
| 20260505161232 | 82 | 202 | 4.3 | 10.4 | 0.00 | 0.00 | 0.00 | 23 | 1055.4 |
| 20260505160732 | 82 | 157 | 5.2 | 13.0 | 0.00 | 0.00 | 0.00 | 22 | 974.8 |
| 20260505160331 | 82 | 270 | 7.0 | 7.8 | 0.00 | 0.00 | 0.00 | 22 | 1084.7 |
| 20260505160232 | 83 | 202 | 7.8 | 10.4 | 0.00 | 0.00 | 0.00 | 22 | 1042.8 |
| 20260505153232 | 86 | 180 | 1.7 | 8.7 | 0.00 | 0.00 | 0.00 | 22 | 1090.9 |
| 20260505153031 | 86 | 180 | 7.0 | 7.0 | 0.00 | 0.00 | 0.00 | 22 | 1089.6 |
| 20260505152732 | 86 | 157 | 5.2 | 7.0 | 0.00 | 0.00 | 0.00 | 22 | 1010.4 |
| 20260505152232 | 86 | 180 | 2.6 | 8.7 | 0.00 | 0.00 | 0.00 | 22 | 1039.7 |
| 20260505151732 | 86 | 135 | 1.7 | 9.6 | 0.00 | 0.00 | 0.00 | 22 | 962.3 |
| 20260505151232 | 87 | 112 | 4.3 | 9.6 | 0.00 | 0.00 | 0.00 | 22 | 994.7 |
| 20260505150732 | 87 | 202 | 9.6 | 12.2 | 0.00 | 0.00 | 0.00 | 22 | 1045.9 |
| 20260505150310 | 87 | 225 | 2.6 | 7.0 | 0.00 | 0.00 | 0.00 | 23 | 1042.8 |
| 20260505150232 | 87 | 225 | 2.6 | 7.0 | 0.00 | 0.00 | 0.00 | 23 | 1042.8 |
| 20260505140233 | 87 | 157 | 0.9 | 3.5 | 0.00 | 0.00 | 0.00 | 24 | 1045.9 |
| 20260505130233 | 89 | 180 | 5.2 | 7.0 | 0.00 | 0.00 | 0.00 | 24 | 1049.1 |
| 20260505124733 | 90 | 225 | 3.5 | 7.8 | 0.00 | 0.00 | 0.00 | 24 | 1050.8 |
| 20260505124532 | 91 | 270 | 7.8 | 7.8 | 0.00 | 0.00 | 0.00 | 24 | 968.5 |
| 20260505124233 | 91 | 292 | 4.3 | 8.7 | 0.00 | 0.00 | 0.00 | 24 | 1013.5 |
| 20260505123733 | 91 | 202 | 3.5 | 10.4 | 0.00 | 0.00 | 0.00 | 24 | 1058.5 |
| 20260505123233 | 92 | 225 | 6.1 | 7.8 | 0.00 | 0.00 | 0.00 | 24 | 974.7 |
| 20260505122819 | 92 | 180 | 2.6 | 7.8 | 0.00 | 0.00 | 0.00 | 24 | 1016.7 |
| 20260505122733 | 92 | 180 | 2.6 | 7.8 | 0.00 | 0.00 | 0.00 | 24 | 1016.7 |
| 20260505122233 | 92 | 225 | 3.5 | 7.0 | 0.00 | 0.00 | 0.00 | 24 | 1046.0 |
| 20260505121733 | 92 | 112 | 7.0 | 10.4 | 0.00 | 0.00 | 0.00 | 24 | 1090.9 |
| 20260505121232 | 92 | 157 | 10.4 | 10.4 | 0.00 | 0.00 | 0.00 | 25 | 1021.2 |
| 20260505120733 | 92 | 135 | 1.7 | 6.1 | 0.00 | 0.00 | 0.00 | 25 | 929.8 |
| 20260505120233 | 91 | 247 | 6.1 | 12.2 | 0.00 | 0.00 | 0.00 | 25 | 1084.6 |
| 20260505115733 | 91 | 157 | 7.8 | 11.3 | 0.00 | 0.00 | 0.00 | 26 | 1085.0 |
| 20260505115233 | 91 | 157 | 4.3 | 7.8 | 0.00 | 0.00 | 0.00 | 26 | 1016.6 |
| 20260505114733 | 91 | 202 | 6.1 | 10.4 | 0.00 | 0.00 | 0.00 | 26 | 1007.3 |
| 20260505114233 | 91 | 247 | 5.2 | 7.0 | 0.00 | 0.00 | 0.00 | 26 | 1081.5 |
| 20260505113932 | 91 | 202 | 3.5 | 5.2 | 0.00 | 0.00 | 0.00 | 26 | 1067.9 |
| 20260505113733 | 91 | 270 | 3.5 | 5.2 | 0.00 | 0.00 | 0.00 | 27 | 1061.6 |
| 20260505113233 | 91 | 135 | 1.7 | 5.2 | 0.00 | 0.00 | 0.00 | 26 | 1009.1 |
| 20260505112733 | 92 | 180 | 2.6 | 10.4 | 0.00 | 0.00 | 0.00 | 27 | 1100.3 |
| 20260505112233 | 92 | 202 | 5.2 | 7.0 | 0.00 | 0.00 | 0.00 | 27 | 1037.1 |
| 20260505111733 | 91 | 180 | 6.1 | 6.1 | 0.00 | 0.00 | 0.00 | 28 | 1036.5 |
| 20260505111233 | 91 | 270 | 1.7 | 7.0 | 0.00 | 0.00 | 0.00 | 28 | 1045.9 |
| 20260505110733 | 91 | 202 | 1.7 | 6.1 | 0.00 | 0.00 | 0.00 | 28 | 971.6 |
| 20260505110632 | 91 | 202 | 2.6 | 7.0 | 0.00 | 0.00 | 0.00 | 27 | 1013.5 |
| 20260505110233 | 91 | 270 | 3.5 | 7.8 | 0.00 | 0.00 | 0.00 | 28 | 1001.0 |
| 20260505101733 | 89 | 247 | 4.3 | 7.0 | 0.00 | 0.00 | 0.00 | 29 | 1058.7 |
| 20260505101233 | 90 | 45 | 1.7 | 4.3 | 0.00 | 0.00 | 0.00 | 29 | 1049.1 |
| 20260505100733 | 91 | 45 | 2.6 | 4.3 | 0.00 | 0.00 | 0.00 | 30 | 1004.1 |
| 20260505100233 | 90 | 180 | 2.6 | 4.3 | 0.00 | 0.00 | 0.00 | 30 | 948.0 |
| 20260505100032 | 90 | 135 | 1.7 | 4.3 | 0.00 | 0.00 | 0.00 | 31 | 1067.9 |
| 20260505095733 | 89 | 202 | 2.6 | 6.1 | 0.00 | 0.00 | 0.00 | 31 | 1015.2 |
| 20260505095233 | 89 | 180 | 3.5 | 7.0 | 0.00 | 0.00 | 0.00 | 31 | 949.7 |
| 20260505094733 | 88 | 202 | 4.3 | 4.3 | 0.00 | 0.00 | 0.00 | 32 | 959.1 |
| 20260505094233 | 88 | 247 | 0.0 | 5.2 | 0.00 | 0.00 | 0.00 | 32 | 999.2 |
| 20260505093733 | 88 | 225 | 1.7 | 3.5 | 0.00 | 0.00 | 0.00 | 32 | 1044.4 |
| 20260505093233 | 89 | 337 | 1.7 | 7.0 | 0.00 | 0.00 | 0.00 | 31 | 1014.8 |
| 20260505092732 | 89 | 247 | 3.5 | 5.2 | 0.00 | 0.00 | 0.00 | 32 | 1072.1 |
| 20260505092233 | 89 | 157 | 2.6 | 5.2 | 0.00 | 0.00 | 0.00 | 32 | 1056.7 |
| 20260505091733 | 89 | 202 | 2.6 | 3.5 | 0.00 | 0.00 | 0.00 | 31 | 962.3 |
| 20260505091233 | 89 | 157 | 3.5 | 6.1 | 0.00 | 0.00 | 0.00 | 31 | 1087.8 |
| 20260505090733 | 90 | 157 | 5.2 | 5.2 | 0.00 | 0.00 | 0.00 | 30 | 1053.4 |
| 20260505090233 | 90 | 135 | 1.7 | 7.8 | 0.00 | 0.00 | 0.00 | 29 | 1021.2 |
| 20260505085733 | 91 | 157 | 3.5 | 6.1 | 0.00 | 0.00 | 0.00 | 30 | 1094.0 |
| 20260505085432 | 91 | 157 | 5.2 | 6.1 | 0.00 | 0.00 | 0.00 | 30 | 1046.1 |
| 20260505085233 | 91 | 135 | 2.6 | 5.2 | 0.00 | 0.00 | 0.00 | 30 | 956.0 |
| 20260505084733 | 91 | 135 | 3.5 | 6.1 | 0.00 | 0.00 | 0.00 | 30 | 1076.0 |
| 20260505084233 | 91 | 0 | 0.9 | 4.3 | 0.00 | 0.00 | 0.00 | 30 | 1090.9 |
| 20260505083733 | 91 | 135 | 0.0 | 6.1 | 0.00 | 0.00 | 0.00 | 31 | 1041.9 |
| 20260505083233 | 91 | 135 | 1.7 | 6.1 | 0.00 | 0.00 | 0.00 | 31 | 1090.9 |
| 20260505082733 | 90 | 135 | 0.9 | 5.2 | 0.00 | 0.00 | 0.00 | 31 | 997.4 |
| 20260505082233 | 90 | 157 | 2.6 | 4.3 | 0.00 | 0.00 | 0.00 | 32 | 920.7 |
| 20260505082132 | 90 | 180 | 0.9 | 3.5 | 0.00 | 0.00 | 0.00 | 32 | 1056.4 |
| 20260505081733 | 90 | 0 | 0.9 | 1.7 | 0.00 | 0.00 | 0.00 | 31 | 1101.1 |
| 20260505081233 | 91 | 157 | 1.7 | 3.5 | 0.00 | 0.00 | 0.00 | 31 | 987.0 |
| 20260505080733 | 93 | 315 | 0.0 | 1.7 | 0.00 | 0.00 | 0.00 | 30 | 927.9 |
| 20260505080233 | 94 | 67 | 2.6 | 4.3 | 0.00 | 0.00 | 0.00 | 30 | 980.9 |
| 20260505075733 | 95 | 157 | 0.9 | 3.5 | 0.00 | 0.00 | 0.00 | 30 | 1018.1 |
| 20260505075234 | 94 | 202 | 1.7 | 4.3 | 0.00 | 0.00 | 0.00 | 30 | 1015.5 |
| 20260505074832 | 94 | 157 | 1.7 | 4.3 | 0.00 | 0.00 | 0.00 | 31 | 1019.8 |
| 20260505074733 | 93 | 135 | 2.6 | 3.5 | 0.00 | 0.00 | 0.00 | 31 | 1013.5 |
| 20260505074233 | 93 | 180 | 0.0 | 1.7 | 0.00 | 0.00 | 0.00 | 31 | 970.1 |
| 20260505073733 | 92 | 157 | 0.9 | 2.6 | 0.00 | 0.00 | 0.00 | 31 | 1055.3 |
| 20260505073233 | 92 | 112 | 2.6 | 4.3 | 0.00 | 0.00 | 0.00 | 31 | 952.9 |
| 20260505072733 | 92 | 157 | 2.6 | 4.3 | 0.00 | 0.00 | 0.00 | 31 | 1084.7 |
| 20260505072233 | 91 | 0 | 0.9 | 2.6 | 0.00 | 0.00 | 0.00 | 32 | 1009.1 |
| 20260505071741 | 92 | 180 | 1.7 | 4.3 | 0.00 | 0.00 | 0.00 | 31 | 1064.8 |
| 20260505071733 | 92 | 180 | 1.7 | 4.3 | 0.00 | 0.00 | 0.00 | 31 | 1064.8 |
| 20260505071532 | 93 | 135 | 2.6 | 4.3 | 0.00 | 0.00 | 0.00 | 31 | 974.6 |
| 20260505071233 | 93 | 22 | 0.9 | 3.5 | 0.00 | 0.00 | 0.00 | 32 | 1052.2 |
| 20260505070733 | 93 | 90 | 2.6 | 4.3 | 0.00 | 0.00 | 0.00 | 32 | 1036.7 |
| 20260505070233 | 91 | 157 | 0.9 | 2.6 | 0.00 | 0.00 | 0.00 | 34 | 1058.4 |
| 20260505065733 | 91 | 0 | 0.9 | 3.5 | 0.00 | 0.00 | 0.00 | 34 | 1020.1 |
| 20260505065233 | 89 | 67 | 0.9 | 2.6 | 0.00 | 0.00 | 0.00 | 36 | 1011.1 |
| 20260505064733 | 87 | 67 | 1.7 | 1.7 | 0.00 | 0.00 | 0.00 | 38 | 1010.4 |
| 20260505063959 | 85 | 90 | 1.7 | 4.3 | 0.00 | 0.00 | 0.00 | 40 | 1014.8 |
| 20260505063459 | 84 | 112 | 1.7 | 5.2 | 0.00 | 0.00 | 0.00 | 40 | 1088.4 |
| 20260505063000 | 82 | 45 | 2.6 | 4.3 | 0.00 | 0.00 | 0.00 | 41 | 1033.4 |
| 20260505062459 | 81 | 90 | 0.0 | 3.5 | 0.00 | 0.00 | 0.00 | 43 | 1090.6 |
| 20260505062000 | 80 | 67 | 1.7 | 4.3 | 0.00 | 0.00 | 0.00 | 45 | 1081.5 |
| 20260505061459 | 79 | 90 | 4.3 | 4.3 | 0.00 | 0.00 | 0.00 | 46 | 996.7 |
| 20260505061158 | 78 | 112 | 0.9 | 3.5 | 0.00 | 0.00 | 0.00 | 47 | 1042.8 |
| 20260505061000 | 78 | 0 | 2.6 | 3.5 | 0.00 | 0.00 | 0.00 | 48 | 1001.0 |
| 20260505060500 | 76 | 45 | 1.7 | 4.3 | 0.00 | 0.00 | 0.00 | 51 | 1004.1 |
| 20260505060000 | 73 | 45 | 0.0 | 3.5 | 0.00 | 0.00 | 0.00 | 53 | 976.4 |
| 20260505055500 | 71 | 0 | 1.7 | 5.2 | 0.00 | 0.00 | 0.00 | 54 | 1053.0 |
| 20260505054959 | 71 | 45 | 1.7 | 4.3 | 0.00 | 0.00 | 0.00 | 54 | 1056.0 |
| 20260505054459 | 70 | 22 | 0.0 | 3.5 | 0.00 | 0.00 | 0.00 | 57 | 1042.5 |
| 20260505054000 | 69 | 112 | 0.0 | 3.5 | 0.00 | 0.00 | 0.00 | 56 | 1036.6 |
| 20260505053859 | 69 | 90 | 1.7 | 5.2 | 0.00 | 0.00 | 0.00 | 55 | 1044.9 |
| 20260505053500 | 69 | 67 | 2.6 | 5.2 | 0.00 | 0.00 | 0.00 | 54 | 1050.3 |
| 20260505052959 | 70 | 67 | 4.3 | 7.0 | 0.00 | 0.00 | 0.00 | 53 | 995.6 |
| 20260505052500 | 72 | 90 | 6.1 | 7.0 | 0.00 | 0.00 | 0.00 | 51 | 1000.2 |
| 20260505052000 | 73 | 67 | 4.3 | 6.1 | 0.00 | 0.00 | 0.00 | 51 | 1050.0 |
| 20260505051459 | 74 | 90 | 6.1 | 6.1 | 0.00 | 0.00 | 0.00 | 51 | 1049.9 |
| 20260505051000 | 74 | 45 | 4.3 | 4.3 | 0.00 | 0.00 | 0.00 | 52 | 1036.5 |
| 20260505050559 | 73 | 90 | 3.5 | 4.3 | 0.00 | 0.00 | 0.00 | 54 | 1044.8 |
| 20260505050500 | 73 | 45 | 0.9 | 3.5 | 0.00 | 0.00 | 0.00 | 54 | 1041.7 |
| 20260505041500 | 65 | 45 | 0.9 | 2.6 | 0.00 | 0.00 | 0.00 | 69 | 1033.4 |
| 20260505041000 | 64 | 22 | 1.7 | 5.2 | 0.00 | 0.00 | 0.00 | 71 | 1090.9 |
| 20260505040500 | 62 | 67 | 2.6 | 3.5 | 0.00 | 0.00 | 0.00 | 73 | 1049.4 |
| 20260505035959 | 61 | 45 | 1.7 | 4.3 | 0.00 | 0.00 | 0.00 | 75 | 935.6 |
| 20260505035500 | 59 | 0 | 1.7 | 3.5 | 0.00 | 0.00 | 0.00 | 76 | 932.9 |
| 20260505035000 | 58 | 45 | 1.7 | 6.1 | 0.00 | 0.00 | 0.00 | 77 | 1052.2 |
| 20260505034500 | 57 | 337 | 0.9 | 3.5 | 0.00 | 0.00 | 0.00 | 77 | 1016.3 |
| 20260505034000 | 56 | 22 | 0.9 | 2.6 | 0.00 | 0.00 | 0.00 | 76 | 1004.1 |
| 20260505033500 | 55 | 0 | 0.9 | 1.7 | 0.00 | 0.00 | 0.00 | 75 | 985.3 |
| 20260505033000 | 55 | 22 | 1.7 | 2.6 | 0.00 | 0.00 | 0.00 | 75 | 1054.2 |
| 20260505032659 | 55 | 67 | 0.9 | 2.6 | 0.00 | 0.00 | 0.00 | 75 | 974.8 |
| 20260505032500 | 55 | 45 | 1.7 | 1.7 | 0.00 | 0.00 | 0.00 | 75 | 968.4 |
| 20260505032000 | 55 | 45 | 0.9 | 1.7 | 0.00 | 0.00 | 0.00 | 74 | 919.1 |
| 20260505031500 | 55 | 45 | 0.0 | 2.6 | 0.00 | 0.00 | 0.00 | 74 | 1036.5 |
| 20260505031000 | 55 | 22 | 1.7 | 1.7 | 0.00 | 0.00 | 0.00 | 74 | 1036.6 |
| 20260505030500 | 55 | 0 | 0.9 | 2.6 | 0.00 | 0.00 | 0.00 | 74 | 995.0 |
| 20260505030000 | 55 | 45 | 0.9 | 4.3 | 0.00 | 0.00 | 0.00 | 73 | 1007.2 |
| 20260505025500 | 55 | 22 | 2.6 | 2.6 | 0.00 | 0.00 | 0.00 | 73 | 1097.2 |
| 20260505025359 | 55 | 22 | 2.6 | 4.3 | 0.00 | 0.00 | 0.00 | 73 | 984.0 |
| 20260505025000 | 55 | 0 | 4.3 | 4.3 | 0.00 | 0.00 | 0.00 | 72 | 1057.1 |
| 20260505024500 | 55 | 22 | 0.9 | 1.7 | 0.00 | 0.00 | 0.00 | 72 | 1000.2 |
| 20260505024000 | 55 | 22 | 0.9 | 4.3 | 0.00 | 0.00 | 0.00 | 72 | 1060.0 |
| 20260505023500 | 55 | 22 | 1.7 | 3.5 | 0.00 | 0.00 | 0.00 | 72 | 1054.4 |
| 20260505023000 | 54 | 45 | 3.5 | 4.3 | 0.00 | 0.00 | 0.00 | 71 | 1001.0 |
| 20260505022500 | 54 | 45 | 1.7 | 3.5 | 0.00 | 0.00 | 0.00 | 71 | 1084.7 |
| 20260505022059 | 55 | 292 | 3.5 | 3.5 | 0.00 | 0.00 | 0.00 | 70 | 1090.9 |
| 20260505022000 | 55 | 270 | 2.6 | 2.6 | 0.00 | 0.00 | 0.00 | 70 | 1086.5 |
| 20260505021500 | 55 | 247 | 0.0 | 1.7 | 0.00 | 0.00 | 0.00 | 69 | 994.4 |
| 20260505021000 | 55 | 22 | 0.0 | 1.7 | 0.00 | 0.00 | 0.00 | 69 | 1002.0 |
| 20260505020500 | 55 | 90 | 0.0 | 0.0 | 0.00 | 0.00 | 0.00 | 68 | 966.5 |
| 20260505020000 | 56 | 180 | 0.0 | 0.0 | 0.00 | 0.00 | 0.00 | 67 | 922.3 |
| 20260505015500 | 56 | 180 | 0.0 | 0.0 | 0.00 | 0.00 | 0.00 | 67 | 1078.4 |
| 20260505015000 | 56 | 180 | 0.0 | 0.0 | 0.00 | 0.00 | 0.00 | 67 | 973.8 |
| 20260505014759 | 56 | 247 | 0.0 | 0.0 | 0.00 | 0.00 | 0.00 | 67 | 1085.2 |
| 20260505014500 | 56 | 247 | 0.0 | 0.0 | 0.00 | 0.00 | 0.00 | 67 | 1016.6 |
| 20260505014000 | 56 | 202 | 0.0 | 0.0 | 0.00 | 0.00 | 0.00 | 66 | 1052.1 |
| 20260505013500 | 57 | 202 | 0.0 | 0.0 | 0.00 | 0.00 | 0.00 | 66 | 965.4 |
| 20260505013000 | 57 | 270 | 0.0 | 0.0 | 0.00 | 0.00 | 0.00 | 66 | 1023.1 |
| 20260505012500 | 57 | 315 | 0.0 | 0.0 | 0.00 | 0.00 | 0.00 | 66 | 984.1 |
| 20260505012000 | 57 | 45 | 0.0 | 0.0 | 0.00 | 0.00 | 0.00 | 66 | 1002.3 |
| 20260505011459 | 57 | 45 | 0.0 | 0.0 | 0.00 | 0.00 | 0.00 | 66 | 1052.2 |
| 20260505011000 | 57 | 45 | 0.0 | 0.0 | 0.00 | 0.00 | 0.00 | 66 | 1064.8 |
| 20260505010500 | 57 | 22 | 0.0 | 0.0 | 0.00 | 0.00 | 0.00 | 66 | 1055.0 |
| 20260505010001 | 57 | 0 | 0.0 | 0.0 | 0.00 | 0.00 | 0.00 | 67 | 1001.0 |
| 20260505005500 | 57 | 337 | 0.0 | 0.0 | 0.00 | 0.00 | 0.00 | 67 | 1094.7 |
| 20260505005000 | 57 | 337 | 0.0 | 0.0 | 0.00 | 0.00 | 0.00 | 67 | 969.9 |
| 20260505004500 | 57 | 292 | 0.0 | 0.0 | 0.00 | 0.00 | 0.00 | 67 | 997.0 |
| 20260505004159 | 57 | 292 | 0.0 | 0.0 | 0.00 | 0.00 | 0.00 | 68 | 956.0 |
| 20260505004000 | 57 | 337 | 0.0 | 0.9 | 0.00 | 0.00 | 0.00 | 68 | 1090.9 |
| 20260505003500 | 57 | 315 | 0.0 | 0.9 | 0.00 | 0.00 | 0.00 | 68 | 1039.7 |
| 20260505003000 | 57 | 292 | 0.0 | 0.0 | 0.00 | 0.00 | 0.00 | 68 | 972.5 |
| 20260505002500 | 57 | 270 | 0.0 | 0.9 | 0.00 | 0.00 | 0.00 | 68 | 1001.0 |
| 20260505002000 | 57 | 292 | 0.0 | 1.7 | 0.00 | 0.00 | 0.00 | 68 | 977.1 |
| 20260505001500 | 57 | 292 | 0.9 | 1.7 | 0.00 | 0.00 | 0.00 | 67 | 1055.4 |
| 20260505001000 | 57 | 292 | 1.7 | 1.7 | 0.00 | 0.00 | 0.00 | 64 | 1061.7 |
| 20260505000859 | 57 | 292 | 0.0 | 1.7 | 0.00 | 0.00 | 0.00 | 63 | 929.8 |
| 20260505000500 | 57 | 292 | 0.0 | 0.0 | 0.00 | 0.00 | 0.00 | 63 | 1004.1 |
| 20260505000000 | 57 | 315 | 0.0 | 0.0 | 0.00 | 0.00 | 0.00 | 63 | 971.7 |
| 20260504235500 | 58 | 315 | 0.0 | 0.0 | 0.00 | 0.00 | 0.00 | 62 | 1049.7 |
| 20260504235000 | 58 | 22 | 0.0 | 0.0 | 0.00 | 0.00 | 0.00 | 62 | 1010.4 |
| 20260504234500 | 58 | 45 | 0.0 | 0.0 | 0.00 | 0.00 | 0.00 | 62 | 1013.5 |
| 20260504234047 | 58 | 67 | 0.0 | 0.0 | 0.00 | 0.00 | 0.00 | 61 | 979.6 |
| 20260504234000 | 58 | 67 | 0.0 | 0.0 | 0.00 | 0.00 | 0.00 | 61 | 979.6 |
| 20260504233559 | 58 | 112 | 0.0 | 0.0 | 0.00 | 0.00 | 0.00 | 61 | 968.5 |
| 20260504233500 | 58 | 112 | 0.0 | 0.0 | 0.00 | 0.00 | 0.00 | 60 | 965.4 |
| 20260504233000 | 59 | 90 | 0.0 | 0.0 | 0.00 | 0.00 | 0.00 | 60 | 1010.3 |
| 20260504232558 | 59 | 90 | 0.0 | 0.0 | 0.00 | 0.00 | 0.00 | 59 | 893.2 |
| 20260504232500 | 59 | 90 | 0.0 | 0.0 | 0.00 | 0.00 | 0.00 | 59 | 893.2 |
| 20260504232000 | 59 | 90 | 0.0 | 0.9 | 0.00 | 0.00 | 0.00 | 59 | 1004.1 |
| 20260504231500 | 59 | 135 | 0.0 | 0.0 | 0.00 | 0.00 | 0.00 | 58 | 1058.5 |
| 20260504231000 | 60 | 90 | 0.0 | 0.0 | 0.00 | 0.00 | 0.00 | 58 | 1090.9 |
| 20260504230500 | 60 | 135 | 0.0 | 0.0 | 0.00 | 0.00 | 0.00 | 57 | 1004.1 |
| 20260504230259 | 60 | 135 | 0.0 | 0.0 | 0.00 | 0.00 | 0.00 | 57 | 974.2 |
| 20260504230000 | 60 | 135 | 0.0 | 0.0 | 0.00 | 0.00 | 0.00 | 56 | 1007.3 |
| 20260504225500 | 60 | 135 | 0.0 | 0.0 | 0.00 | 0.00 | 0.00 | 56 | 974.8 |
| 20260504225000 | 61 | 135 | 0.0 | 0.9 | 0.00 | 0.00 | 0.00 | 55 | 994.7 |
| 20260504224500 | 61 | 135 | 0.0 | 0.0 | 0.00 | 0.00 | 0.00 | 55 | 1087.8 |
| 20260504224000 | 61 | 90 | 0.0 | 0.0 | 0.00 | 0.00 | 0.00 | 54 | 1009.6 |
| 20260504223500 | 62 | 157 | 0.0 | 0.0 | 0.00 | 0.00 | 0.00 | 54 | 994.7 |
| 20260504222959 | 62 | 112 | 0.0 | 0.0 | 0.00 | 0.00 | 0.00 | 53 | 962.3 |
| 20260504222500 | 62 | 112 | 0.0 | 0.0 | 0.00 | 0.00 | 0.00 | 53 | 965.8 |
| 20260504222000 | 62 | 112 | 0.0 | 0.0 | 0.00 | 0.00 | 0.00 | 53 | 1084.6 |
| 20260504221500 | 62 | 135 | 0.0 | 0.9 | 0.00 | 0.00 | 0.00 | 52 | 997.9 |
| 20260504221000 | 62 | 157 | 0.9 | 0.9 | 0.00 | 0.00 | 0.00 | 52 | 1051.7 |
| 20260504220500 | 63 | 180 | 0.0 | 0.0 | 0.00 | 0.00 | 0.00 | 52 | 974.8 |
| 20260504220000 | 63 | 135 | 0.0 | 0.0 | 0.00 | 0.00 | 0.00 | 51 | 1109.7 |
| 20260504215659 | 63 | 157 | 0.0 | 0.0 | 0.00 | 0.00 | 0.00 | 51 | 981.0 |
| 20260504215500 | 63 | 157 | 0.0 | 0.0 | 0.00 | 0.00 | 0.00 | 51 | 1099.0 |
| 20260504215000 | 63 | 180 | 0.0 | 0.9 | 0.00 | 0.00 | 0.00 | 50 | 1046.0 |
| 20260504214500 | 64 | 157 | 0.9 | 1.7 | 0.00 | 0.00 | 0.00 | 50 | 1087.8 |
| 20260504214000 | 64 | 135 | 1.7 | 1.7 | 0.00 | 0.00 | 0.00 | 49 | 974.8 |
| 20260504213500 | 64 | 135 | 0.0 | 0.0 | 0.00 | 0.00 | 0.00 | 49 | 933.0 |
| 20260504213000 | 65 | 135 | 0.0 | 0.0 | 0.00 | 0.00 | 0.00 | 49 | 1010.4 |
| 20260504212500 | 65 | 292 | 0.0 | 0.0 | 0.00 | 0.00 | 0.00 | 48 | 942.9 |
| 20260504212359 | 65 | 292 | 0.0 | 0.9 | 0.00 | 0.00 | 0.00 | 48 | 998.8 |
| 20260504212000 | 65 | 315 | 0.0 | 1.7 | 0.00 | 0.00 | 0.00 | 48 | 983.4 |
| 20260504211500 | 66 | 292 | 0.9 | 1.7 | 0.00 | 0.00 | 0.00 | 48 | 1063.0 |
| 20260504211001 | 66 | 315 | 0.9 | 1.7 | 0.00 | 0.00 | 0.00 | 48 | 933.2 |
| 20260504210501 | 66 | 292 | 1.7 | 2.6 | 0.00 | 0.00 | 0.00 | 48 | 968.9 |
| 20260504210000 | 66 | 315 | 1.7 | 2.6 | 0.00 | 0.00 | 0.00 | 47 | 936.1 |
| 20260504205500 | 66 | 315 | 1.7 | 2.6 | 0.00 | 0.00 | 0.00 | 47 | 1048.3 |
| 20260504205059 | 66 | 337 | 1.7 | 2.6 | 0.00 | 0.00 | 0.00 | 47 | 1042.8 |
| 20260504205000 | -21 | 337 | 1.7 | 2.6 | 0.00 | 0.00 | 0.00 | 47 | 914.2 |
| 20260504204500 | 66 | 337 | 1.7 | 3.5 | 0.00 | 0.00 | 0.00 | 47 | 972.9 |
| 20260504204000 | 67 | 337 | 1.7 | 4.3 | 0.00 | 0.00 | 0.00 | 47 | 1046.9 |
| 20260504203500 | 67 | 292 | 2.6 | 3.5 | 0.00 | 0.00 | 0.00 | 46 | 974.6 |
| 20260504203000 | 67 | 292 | 2.6 | 3.5 | 0.00 | 0.00 | 0.00 | 46 | 1065.6 |
| 20260504202500 | 67 | 315 | 2.6 | 2.6 | 0.00 | 0.00 | 0.00 | 45 | 1058.6 |
| 20260504202001 | 67 | 292 | 1.7 | 2.6 | 0.00 | 0.00 | 0.00 | 45 | 1045.9 |
| 20260504201800 | 67 | 315 | 1.7 | 2.6 | 0.00 | 0.00 | 0.00 | 45 | 1097.2 |
| 20260504201500 | 67 | 292 | 2.6 | 3.5 | 0.00 | 0.00 | 0.00 | 45 | 1094.0 |
| 20260504201000 | 67 | 292 | 2.6 | 3.5 | 0.00 | 0.00 | 0.00 | 45 | 966.5 |
| 20260504200500 | 67 | 315 | 3.5 | 4.3 | 0.00 | 0.00 | 0.00 | 44 | 969.1 |
| 20260504200000 | 68 | 315 | 3.5 | 3.5 | 0.00 | 0.00 | 0.00 | 44 | 1002.5 |
| 20260504195500 | 68 | 270 | 3.5 | 4.3 | 0.00 | 0.00 | 0.00 | 43 | 1087.8 |